Погода в Кизильском

Россия / Челябинская область     52°43′22″N   58°53′58″E
темп.,
°C
ветер,
м/с
пор.,
м/с
влажн.,
%
обл.,
%
осадки,
мм/ч
давл.,
гПа
погр.,
м
14 мая, пт
пт1423:00+19зсз22315 0.0 102611
02:00+16зсз22435 0.0 102611
05:00+15зсз11600 0.0 102711
08:00+20з11470 0.0 1027150
11:00+26юз23250 0.0 10271175
14:00+28юз33210 0.0 10262512
17:00+28з43210 0.0 10252397
20:00+24зюз22300 0.0 102519
15 мая, сб
сб1523:00+19зсз48450 0.0 1025115
02:00+17сз35461 0.0 102557
05:00+16зсз11500 0.0 102611
08:00+20зюз11410 0.0 1026157
11:00+26зюз22280 0.0 10251087
14:00+28з22205 0.0 10242260
17:00+29зсз22205 0.0 10232556
20:00+25юз22303 0.0 102212
16 мая, вс
вс1623:00+18всв235658 0.3 102356
02:00+17зсз11592 0.0 102311
05:00+16ссз11603 0.0 102411
08:00+21св01464 0.0 1024179
11:00+27ю01326 0.0 1023959
14:00+30юз12235 0.0 10222949
17:00+30зюз22215 0.0 10213427
20:00+25сз3435100 0.0 102157
17 мая, пн
пн1723:00+19с22527 0.0 102217
02:00+18с22505 0.0 102211
05:00+17зюз11535 0.0 102311
08:00+22зсз12422 0.0 1023182
11:00+28сз33290 0.0 10221156
14:00+30зсз432043 0.0 10213456
17:00+25з11113779 0.0 1021837
20:00+21сз6115435 0.0 1021347
18 мая, вт
вт1823:00+18з115627 0.0 102111
02:00+17сз225769 0.0 102112
05:00+16зсз225960 0.0 102011
08:00+21сз2348100 0.0 1019197
11:00+26ссз34351 0.0 10191180
14:00+29сз222678 0.0 10173255
17:00+29зсз222628 0.0 10172843
20:00+25с363977 0.0 1016172